Location: Lafig�re
(44.4503°N, 4.0357°E)
Time: 05:41:38
(UTC+00:00)

Transit 2A Rocket - Pass Details

Date: 24 June 2021
Orbit: 590 x 913 km, 66.7° (Epoch: 26 July)

Event Time Altitude Azimuth Distance (km) Brightness Sun altitude
Exits shadow 22:08:08 24° 101° (E) 1,244 5.8 -18.5°
Drops below altitude 10° 22:11:17 10° 56° (NE) 1,969 7.3 -18.8°
Sets 22:13:54 0° 43° (NE) 2,915 8.3 -18.9°
